This demonstration page uses our WeatherBlox Daily Observations layout. Learn more.

Left ArrowRight Arrow

Hourly Observations for July 29, 2017

Temp ( °F °C ) Dew Point ( °F °C ) Humidity (%) Winds ( mph kmh ) Pressure ( in mb ) Visibility ( mi km ) Precip ( " mm )
12:53 am 00:53 Clear 83 28.3 52 11.1 34 34 SE 9 15 29.82 1010 10 16 0.00 0.00
1:53 am 01:53 Clear 79 26.1 53 11.7 41 41 SSE 7 11 29.83 1010 10 16 0.00 0.00
2:53 am 02:53 Clear 77 25 53 11.7 43 43 SE 7 11 29.82 1010 10 16 0.00 0.00
3:53 am 03:53 Clear 75 23.9 54 12.2 48 48 SE 7 11 29.81 1009 10 16 0.00 0.00
4:53 am 04:53 Clear 74 23.3 54 12.2 50 50 E 5 7 29.81 1010 10 16 0.00 0.00
5:53 am 05:53 Clear 72 22.2 55 12.8 55 55 E 6 9 29.81 1010 10 16 0.00 0.00
6:53 am 06:53 Clear 73 22.8 56 13.3 55 55 E 7 11 29.82 1010 10 16 0.00 0.00
7:53 am 07:53 Sunny 75 23.9 56 13.3 52 52 ESE 8 13 29.84 1011 10 16 0.00 0.00
8:09 am 08:09 Mostly Sunny 77 25 56 13.3 48 48 ESE 9 15 29.83 1010 10 16 0.00 0.00
8:53 am 08:53 Sunny 81 27.2 56 13.3 42 42 SE 12 19 29.86 1011 10 16 0.00 0.00
9:53 am 09:53 Sunny 84 28.9 57 13.9 40 40 SE 8 13 29.86 1011 10 16 0.00 0.00
10:53 am 10:53 Sunny 88 31.1 56 13.3 34 34 Calm 29.85 1011 10 16 0.00 0.00
11:53 am 11:53 Sunny 92 33.3 56 13.3 30 30 Calm 29.85 1011 10 16 0.00 0.00
12:53 pm 12:53 Sunny 96 35.6 56 13.3 26 26 SE 8 13 29.83 1010 10 16 0.00 0.00
1:53 pm 13:53 Sunny 98 36.7 54 12.2 23 23 ESE 7 11 29.82 1010 10 16 0.00 0.00
2:53 pm 14:53 Sunny 98 36.7 53 11.7 22 22 VRB 6 9 29.80 1009 10 16 0.00 0.00
3:53 pm 15:53 Sunny 100 37.8 50 10 18 18 SE 9 15 29.78 1008 10 16 0.00 0.00
4:53 pm 16:53 Mostly Sunny 101 38.3 51 10.6 19 19 SSE 13 20 29.76 1008 10 16 0.00 0.00
5:53 pm 17:53 Sunny 100 37.8 50 10 18 18 SE 14 22 29.76 1008 10 16 0.00 0.00
6:53 pm 18:53 Partly Cloudy 100 37.8 51 10.6 19 19 SE 16 26 29.75 1008 10 16 0.00 0.00
7:53 pm 19:53 Mostly Cloudy 99 37.2 51 10.6 20 20 SE 17 28 29.76 1008 10 16 0.00 0.00
8:11 pm 20:11 Cloudy 91 32.8 57 13.9 32 32 S 18 30 29.71 1006 10 16 0.00 0.00
8:53 pm 20:53 Mostly Clear 85 29.4 64 17.8 50 50 SSW 12 19 29.82 1010 10 16 0.00 0.03
9:53 pm 21:53 Clear 84 28.9 59 15 43 43 SW 6 9 29.85 1011 10 16 0.00 0.00
10:53 pm 22:53 Clear 82 27.8 58 14.4 44 44 SSW 3 6 29.86 1011 10 16 0.00 0.00
11:53 pm 23:53 Clear 81 27.2 59 15 47 47 SE 7 11 29.87 1011 10 16 0.00 0.00

Powered by AerisWeather